Time,TemperatureF,DewpointF,PressureIn,WindDirection,WindDirectionDegrees,WindSpeedMPH,WindSpeedGustMPH,Humidity,HourlyPrecipIn,Conditions,Clouds,dailyrainin,SolarRadiationWatts/m^2,SoftwareType,DateUTC
2013-09-30 00:00:00,53.0,48.0,-100.00,South,180,1.0,-999.0,84,-99.99,,,-99.99,0.000000,,2013-09-30 04:00:00,
2013-09-30 00:44:00,53.0,48.0,-100.00,South,180,1.0,-999.0,84,-99.99,,,-99.99,0.000000,,2013-09-30 04:44:00,
2013-09-30 00:53:00,53.0,48.0,-100.00,South,180,1.0,-999.0,84,-99.99,,,-99.99,0.000000,,2013-09-30 04:53:00,
2013-09-30 01:00:00,52.0,48.0,-100.00,South,180,1.0,-999.0,84,-99.99,,,-99.99,0.000000,,2013-09-30 05:00:00,
2013-09-30 01:43:00,52.0,48.0,-100.00,South,180,1.0,-999.0,84,-99.99,,,-99.99,0.000000,,2013-09-30 05:43:00,
2013-09-30 01:52:00,52.0,48.0,-100.00,South,180,1.0,-999.0,84,-99.99,,,-99.99,0.000000,,2013-09-30 05:52:00,
2013-09-30 02:00:00,53.0,48.0,-100.00,South,180,1.0,-999.0,84,-99.99,,,-99.99,0.000000,,2013-09-30 06:00:00,
2013-09-30 02:42:00,53.0,48.0,-100.00,South,180,1.0,-999.0,84,-99.99,,,-99.99,0.000000,,2013-09-30 06:42:00,
2013-09-30 02:52:00,53.0,48.0,-100.00,South,180,1.0,-999.0,84,-99.99,,,-99.99,0.000000,,2013-09-30 06:52:00,
2013-09-30 03:00:00,53.0,49.0,-100.00,South,180,1.0,-999.0,85,-99.99,,,-99.99,0.000000,,2013-09-30 07:00:00,
2013-09-30 03:42:00,53.0,49.0,-100.00,South,180,1.0,-999.0,85,-99.99,,,-99.99,0.000000,,2013-09-30 07:42:00,
2013-09-30 03:53:00,53.0,49.0,-100.00,South,180,1.0,-999.0,85,-99.99,,,-99.99,0.000000,,2013-09-30 07:53:00,
2013-09-30 04:00:00,52.0,49.0,-100.00,ESE,112,0.0,-999.0,87,-99.99,,,-99.99,0.000000,,2013-09-30 08:00:00,
2013-09-30 04:42:00,52.0,49.0,-100.00,ESE,112,0.0,-999.0,87,-99.99,,,-99.99,0.000000,,2013-09-30 08:42:00,
2013-09-30 04:52:00,52.0,49.0,-100.00,ESE,112,0.0,-999.0,87,-99.99,,,-99.99,0.000000,,2013-09-30 08:52:00,
2013-09-30 05:00:00,50.0,48.0,-100.00,ENE,67,0.0,-999.0,91,-99.99,,,-99.99,0.000000,,2013-09-30 09:00:00,
2013-09-30 05:42:00,50.0,48.0,-100.00,ENE,67,0.0,-999.0,91,-99.99,,,-99.99,0.000000,,2013-09-30 09:42:00,
2013-09-30 05:54:00,50.0,48.0,-100.00,ENE,67,0.0,-999.0,91,-99.99,,,-99.99,0.000000,,2013-09-30 09:54:00,
2013-09-30 06:00:00,48.0,47.0,-100.00,ENE,67,0.0,-999.0,93,-99.99,,,-99.99,0.000000,,2013-09-30 10:00:00,
2013-09-30 06:43:00,48.0,47.0,-100.00,ENE,67,0.0,-999.0,93,-99.99,,,-99.99,0.000000,,2013-09-30 10:43:00,
2013-09-30 06:53:00,48.0,47.0,-100.00,ENE,67,0.0,-999.0,93,-99.99,,,-99.99,0.000000,,2013-09-30 10:53:00,
2013-09-30 07:00:00,47.0,46.0,-100.00,ENE,67,0.0,-999.0,94,-99.99,,,-99.99,0.000000,,2013-09-30 11:00:00,
2013-09-30 07:43:00,47.0,46.0,-100.00,ENE,67,0.0,-999.0,94,-99.99,,,-99.99,0.000000,,2013-09-30 11:43:00,
2013-09-30 07:52:00,47.0,46.0,-100.00,ENE,67,0.0,-999.0,94,-99.99,,,-99.99,0.000000,,2013-09-30 11:52:00,
2013-09-30 08:00:00,46.0,45.0,-100.00,ENE,67,0.0,-999.0,94,-99.99,,,-99.99,3.480000,,2013-09-30 12:00:00,
2013-09-30 08:42:00,46.0,45.0,-100.00,ENE,67,0.0,-999.0,94,-99.99,,,-99.99,3.480000,,2013-09-30 12:42:00,
2013-09-30 08:52:00,46.0,45.0,-100.00,ENE,67,0.0,-999.0,94,-99.99,,,-99.99,3.480000,,2013-09-30 12:52:00,
2013-09-30 09:00:00,49.0,47.0,-100.00,ENE,67,0.0,-999.0,93,-99.99,,,-99.99,84.680000,,2013-09-30 13:00:00,
2013-09-30 09:42:00,49.0,47.0,-100.00,ENE,67,0.0,-999.0,93,-99.99,,,-99.99,84.680000,,2013-09-30 13:42:00,
2013-09-30 09:52:00,49.0,47.0,-100.00,ENE,67,0.0,-999.0,93,-99.99,,,-99.99,84.680000,,2013-09-30 13:52:00,
2013-09-30 10:00:00,55.0,49.0,-100.00,NNE,22,1.0,-999.0,79,-99.99,,,-99.99,219.240005,,2013-09-30 14:00:00,
2013-09-30 10:42:00,55.0,49.0,-100.00,NNE,22,1.0,-999.0,79,-99.99,,,-99.99,219.240005,,2013-09-30 14:42:00,
2013-09-30 10:53:00,55.0,49.0,-100.00,NNE,22,1.0,-999.0,79,-99.99,,,-99.99,219.240005,,2013-09-30 14:53:00,
2013-09-30 11:00:00,58.0,51.0,-100.00,NW,315,4.0,-999.0,78,-99.99,,,-99.99,327.119995,,2013-09-30 15:00:00,
2013-09-30 11:45:00,58.0,51.0,-100.00,NW,315,4.0,-999.0,78,-99.99,,,-99.99,327.119995,,2013-09-30 15:45:00,
2013-09-30 11:54:00,58.0,51.0,-100.00,NW,315,4.0,-999.0,78,-99.99,,,-99.99,327.119995,,2013-09-30 15:54:00,
2013-09-30 12:00:00,63.0,52.0,-100.00,NW,315,3.0,-999.0,68,-99.99,,,-99.99,460.519989,,2013-09-30 16:00:00,
2013-09-30 12:44:00,63.0,52.0,-100.00,NW,315,3.0,-999.0,68,-99.99,,,-99.99,460.519989,,2013-09-30 16:44:00,
2013-09-30 12:53:00,63.0,52.0,-100.00,NW,315,3.0,-999.0,68,-99.99,,,-99.99,460.519989,,2013-09-30 16:53:00,
2013-09-30 13:00:00,66.0,48.0,-100.00,NNW,337,4.0,-999.0,51,-99.99,,,-99.99,512.719971,,2013-09-30 17:00:00,
2013-09-30 13:43:00,66.0,48.0,-100.00,NNW,337,4.0,-999.0,51,-99.99,,,-99.99,512.719971,,2013-09-30 17:43:00,
2013-09-30 13:53:00,66.0,48.0,-100.00,NNW,337,4.0,-999.0,51,-99.99,,,-99.99,512.719971,,2013-09-30 17:53:00,
2013-09-30 14:00:00,68.0,47.0,-100.00,NNW,337,5.0,-999.0,46,-99.99,,,-99.99,512.719971,,2013-09-30 18:00:00,
2013-09-30 14:42:00,68.0,47.0,-100.00,NNW,337,5.0,-999.0,46,-99.99,,,-99.99,512.719971,,2013-09-30 18:42:00,
2013-09-30 14:53:00,68.0,47.0,-100.00,NNW,337,5.0,-999.0,46,-99.99,,,-99.99,512.719971,,2013-09-30 18:53:00,
2013-09-30 15:00:00,68.0,50.0,-100.00,ENE,67,7.0,-999.0,53,-99.99,,,-99.99,535.919983,,2013-09-30 19:00:00,
2013-09-30 15:42:00,68.0,50.0,-100.00,ENE,67,7.0,-999.0,53,-99.99,,,-99.99,535.919983,,2013-09-30 19:42:00,
2013-09-30 15:53:00,68.0,50.0,-100.00,ENE,67,7.0,-999.0,53,-99.99,,,-99.99,535.919983,,2013-09-30 19:53:00,
2013-09-30 16:00:00,67.0,50.0,-100.00,North,0,7.0,-999.0,52,-99.99,,,-99.99,473.279999,,2013-09-30 20:00:00,
2013-09-30 16:43:00,67.0,50.0,-100.00,North,0,7.0,-999.0,52,-99.99,,,-99.99,473.279999,,2013-09-30 20:43:00,
2013-09-30 16:53:00,67.0,50.0,-100.00,North,0,7.0,-999.0,52,-99.99,,,-99.99,473.279999,,2013-09-30 20:53:00,
2013-09-30 17:00:00,68.0,51.0,-100.00,NNW,337,5.0,-999.0,54,-99.99,,,-99.99,356.119995,,2013-09-30 21:00:00,
2013-09-30 17:44:00,68.0,51.0,-100.00,NNW,337,5.0,-999.0,54,-99.99,,,-99.99,356.119995,,2013-09-30 21:44:00,
2013-09-30 17:54:00,68.0,51.0,-100.00,NNW,337,5.0,-999.0,54,-99.99,,,-99.99,356.119995,,2013-09-30 21:54:00,
2013-09-30 18:00:00,67.0,51.0,-100.00,NNW,337,5.0,-999.0,55,-99.99,,,-99.99,251.720001,,2013-09-30 22:00:00,
2013-09-30 18:44:00,67.0,51.0,-100.00,NNW,337,5.0,-999.0,55,-99.99,,,-99.99,251.720001,,2013-09-30 22:44:00,
2013-09-30 18:54:00,67.0,51.0,-100.00,NNW,337,5.0,-999.0,55,-99.99,,,-99.99,251.720001,,2013-09-30 22:54:00,
2013-09-30 19:00:00,66.0,51.0,-100.00,NW,315,3.0,-999.0,59,-99.99,,,-99.99,104.400002,,2013-09-30 23:00:00,
2013-09-30 19:43:00,66.0,51.0,-100.00,NW,315,3.0,-999.0,59,-99.99,,,-99.99,104.400002,,2013-09-30 23:43:00,
2013-09-30 19:54:00,66.0,51.0,-100.00,NW,315,3.0,-999.0,59,-99.99,,,-99.99,104.400002,,2013-09-30 23:54:00,
2013-09-30 20:00:00,61.0,53.0,-100.00,West,270,1.0,-999.0,73,-99.99,,,-99.99,9.280000,,2013-10-01 00:00:00,
2013-09-30 20:43:00,61.0,53.0,-100.00,West,270,1.0,-999.0,73,-99.99,,,-99.99,9.280000,,2013-10-01 00:43:00,
2013-09-30 20:52:00,61.0,53.0,-100.00,West,270,1.0,-999.0,73,-99.99,,,-99.99,9.280000,,2013-10-01 00:52:00,
2013-09-30 21:00:00,56.0,52.0,-100.00,West,270,0.0,-999.0,87,-99.99,,,-99.99,0.000000,,2013-10-01 01:00:00,
2013-09-30 21:42:00,56.0,52.0,-100.00,West,270,0.0,-999.0,87,-99.99,,,-99.99,0.000000,,2013-10-01 01:42:00,
2013-09-30 21:52:00,56.0,52.0,-100.00,West,270,0.0,-999.0,87,-99.99,,,-99.99,0.000000,,2013-10-01 01:52:00,
2013-09-30 22:00:00,53.0,51.0,-100.00,West,270,0.0,-999.0,91,-99.99,,,-99.99,0.000000,,2013-10-01 02:00:00,
2013-09-30 22:43:00,53.0,51.0,-100.00,West,270,0.0,-999.0,91,-99.99,,,-99.99,0.000000,,2013-10-01 02:43:00,
2013-09-30 22:52:00,53.0,51.0,-100.00,West,270,0.0,-999.0,91,-99.99,,,-99.99,0.000000,,2013-10-01 02:52:00,
2013-09-30 23:00:00,52.0,50.0,-100.00,West,270,0.0,-999.0,93,-99.99,,,-99.99,0.000000,,2013-10-01 03:00:00,
2013-09-30 23:44:00,52.0,50.0,-100.00,West,270,0.0,-999.0,93,-99.99,,,-99.99,0.000000,,2013-10-01 03:44:00,
2013-09-30 23:55:00,52.0,50.0,-100.00,West,270,0.0,-999.0,93,-99.99,,,-99.99,0.000000,,2013-10-01 03:55:00,